Location: Butler
(32.5575°N, 84.2380°W)
Time: 01:46:27
(UTC+00:00)

N. Korean satellite - Pass Details

Date: 02 December 2021
Orbit: 447 x 491 km, 97.3° (Epoch: 24 January)

Event Time Altitude Azimuth Distance (km) Brightness Sun altitude
Rises 10:34:52 0° 15° (NNE) 2,455 10.2 -22.1°
Reaches altitude 10° 10:36:55 10° 20° (NNE) 1,577 9.2 -21.7°
Maximum altitude 10:40:15 58° 100° (E) 524 6.9 -21.0°
Drops below altitude 10° 10:43:33 10° 181° (S) 1,565 9.3 -20.3°
Sets 10:45:35 0° 185° (S) 2,434 10.2 -19.9°
